Year,Month,Day,Hour,Minute,Value (Times are PST for windgust in km/hr)
2018,12,20,00,00,8.10
2018,12,20,00,01,16.10
2018,12,20,00,02,16.10
2018,12,20,00,03,16.10
2018,12,20,00,04,17.70
2018,12,20,00,05,12.90
2018,12,20,00,06,20.90
2018,12,20,00,07,12.90
2018,12,20,00,08,16.10
2018,12,20,00,09,14.50
2018,12,20,00,10,22.50
2018,12,20,00,11,19.30
2018,12,20,00,12,22.50
2018,12,20,00,13,19.30
2018,12,20,00,14,17.70
2018,12,20,00,15,19.30
2018,12,20,00,16,20.90
2018,12,20,00,17,6.40
2018,12,20,00,18,29.00
2018,12,20,00,19,14.50
2018,12,20,00,20,22.50
2018,12,20,00,21,19.30
2018,12,20,00,22,16.10
2018,12,20,00,23,22.50
2018,12,20,00,24,19.30
2018,12,20,00,25,12.90
2018,12,20,00,26,20.90
2018,12,20,00,27,17.70
2018,12,20,00,28,19.30
2018,12,20,00,29,17.70
2018,12,20,00,30,16.10
2018,12,20,00,31,16.10
2018,12,20,00,32,17.70
2018,12,20,00,33,22.50
2018,12,20,00,34,11.30
2018,12,20,00,35,25.70
2018,12,20,00,36,19.30
2018,12,20,00,37,12.90
2018,12,20,00,38,24.20
2018,12,20,00,39,27.40
2018,12,20,00,40,24.20
2018,12,20,00,41,16.10
2018,12,20,00,42,12.90
2018,12,20,00,43,16.10
2018,12,20,00,44,17.70
2018,12,20,00,45,19.30
2018,12,20,00,46,19.30
2018,12,20,00,47,14.50
2018,12,20,00,48,12.90
2018,12,20,00,49,14.50
2018,12,20,00,50,19.30
2018,12,20,00,51,12.90
2018,12,20,00,52,12.90
2018,12,20,00,53,20.90
2018,12,20,00,54,16.10
2018,12,20,00,55,25.70
2018,12,20,00,56,24.20
2018,12,20,00,57,12.90
2018,12,20,00,58,14.50
2018,12,20,00,59,17.70
2018,12,20,01,00,29.00
2018,12,20,01,01,17.70
2018,12,20,01,02,22.50
2018,12,20,01,03,22.50
2018,12,20,01,04,22.50
2018,12,20,01,05,20.90
2018,12,20,01,06,22.50
2018,12,20,01,07,19.30
2018,12,20,01,08,12.90
2018,12,20,01,09,16.10
2018,12,20,01,10,14.50
2018,12,20,01,11,17.70
2018,12,20,01,12,14.50
2018,12,20,01,13,11.30
2018,12,20,01,14,12.90
2018,12,20,01,15,6.40
2018,12,20,01,16,4.80
2018,12,20,01,17,16.10
2018,12,20,01,18,9.60
2018,12,20,01,19,11.30
2018,12,20,01,20,11.30
2018,12,20,01,21,19.30
2018,12,20,01,22,6.40
2018,12,20,01,23,12.90
2018,12,20,01,24,14.50
2018,12,20,01,25,12.90
2018,12,20,01,26,20.90
2018,12,20,01,27,17.70
2018,12,20,01,28,22.50
2018,12,20,01,29,16.10
2018,12,20,01,30,17.70
2018,12,20,01,31,22.50
2018,12,20,01,32,16.10
2018,12,20,01,33,11.30
2018,12,20,01,34,14.50
2018,12,20,01,35,22.50
2018,12,20,01,36,17.70
2018,12,20,01,37,19.30
2018,12,20,01,38,16.10
2018,12,20,01,39,11.30
2018,12,20,01,40,16.10
2018,12,20,01,41,25.70
2018,12,20,01,42,20.90
2018,12,20,01,43,20.90
2018,12,20,01,44,22.50
2018,12,20,01,45,30.60
2018,12,20,01,46,24.20
2018,12,20,01,47,20.90
2018,12,20,01,48,20.90
2018,12,20,01,49,27.40
2018,12,20,01,50,27.40
2018,12,20,01,51,25.70
2018,12,20,01,52,11.30
2018,12,20,01,53,12.90
2018,12,20,01,54,19.30
2018,12,20,01,55,19.30
2018,12,20,01,56,19.30
2018,12,20,01,57,14.50
2018,12,20,01,58,14.50
2018,12,20,01,59,14.50
2018,12,20,02,00,14.50
2018,12,20,02,01,14.50
2018,12,20,02,02,14.50
2018,12,20,02,03,14.50
2018,12,20,02,04,14.50
2018,12,20,02,05,14.50
2018,12,20,02,06,14.50
2018,12,20,08,54,20.90
2018,12,20,08,55,29.00
2018,12,20,08,56,24.20
2018,12,20,08,57,17.70
2018,12,20,08,58,22.50
2018,12,20,08,59,29.00
2018,12,20,09,00,32.20
2018,12,20,09,01,32.20
2018,12,20,09,02,22.50
2018,12,20,09,03,17.70
2018,12,20,09,04,19.30
2018,12,20,09,05,17.70
2018,12,20,09,06,14.50
2018,12,20,09,07,19.30
2018,12,20,09,08,19.30
2018,12,20,09,09,25.70
2018,12,20,09,10,27.40
2018,12,20,09,11,27.40
2018,12,20,09,12,17.70
2018,12,20,09,13,24.20
2018,12,20,09,14,33.80
2018,12,20,09,15,33.80
2018,12,20,09,16,20.90
2018,12,20,09,17,24.20
2018,12,20,09,18,19.30
2018,12,20,09,19,22.50
2018,12,20,09,20,19.30
2018,12,20,09,21,20.90
2018,12,20,09,22,17.70
2018,12,20,09,23,30.60
2018,12,20,09,24,17.70
2018,12,20,09,25,19.30
2018,12,20,09,26,19.30
2018,12,20,09,27,22.50
2018,12,20,09,28,19.30
2018,12,20,09,29,19.30
2018,12,20,09,30,17.70
2018,12,20,09,31,17.70
2018,12,20,09,32,14.50
2018,12,20,09,33,27.40
2018,12,20,09,34,27.40
2018,12,20,09,35,30.60
2018,12,20,09,36,25.70
2018,12,20,09,37,22.50
2018,12,20,09,38,24.20
2018,12,20,09,39,17.70
2018,12,20,09,40,30.60
2018,12,20,09,41,38.60
2018,12,20,09,42,24.20
2018,12,20,09,43,27.40
2018,12,20,09,44,22.50
2018,12,20,09,45,20.90
2018,12,20,09,46,14.50
2018,12,20,09,47,20.90
2018,12,20,09,48,22.50
2018,12,20,09,49,40.20
2018,12,20,09,50,37.00
2018,12,20,09,51,27.40
2018,12,20,09,52,27.40
2018,12,20,09,53,22.50
2018,12,20,09,54,32.20
2018,12,20,09,55,24.20
2018,12,20,09,56,22.50
2018,12,20,09,57,27.40
2018,12,20,09,58,25.70
2018,12,20,09,59,20.90
2018,12,20,10,00,19.30
2018,12,20,10,01,27.40
2018,12,20,10,02,29.00
2018,12,20,10,03,20.90
2018,12,20,10,04,20.90
2018,12,20,10,05,24.20
2018,12,20,10,06,25.70
2018,12,20,10,07,32.20
2018,12,20,10,08,30.60
2018,12,20,10,09,25.70
2018,12,20,10,10,24.20
2018,12,20,10,11,17.70
2018,12,20,10,12,22.50
2018,12,20,10,13,14.50
2018,12,20,10,14,29.00
2018,12,20,10,15,22.50
2018,12,20,10,16,30.60
2018,12,20,10,17,22.50
2018,12,20,10,18,19.30
2018,12,20,10,19,14.50
2018,12,20,10,20,24.20
2018,12,20,10,21,25.70
2018,12,20,10,22,22.50
2018,12,20,10,23,25.70
2018,12,20,10,24,22.50
2018,12,20,10,25,29.00
2018,12,20,10,26,16.10
2018,12,20,10,27,22.50
2018,12,20,10,28,22.50
2018,12,20,10,29,17.70
2018,12,20,10,30,14.50
2018,12,20,10,31,16.10
2018,12,20,10,32,16.10
2018,12,20,10,33,14.50
2018,12,20,10,34,19.30
2018,12,20,10,35,22.50
2018,12,20,10,36,16.10
2018,12,20,10,37,14.50
2018,12,20,10,38,14.50
2018,12,20,10,39,12.90
2018,12,20,10,40,6.40
2018,12,20,10,41,12.90
2018,12,20,10,42,12.90
2018,12,20,10,43,14.50
2018,12,20,10,44,11.30
2018,12,20,10,45,17.70
2018,12,20,10,46,14.50
2018,12,20,10,47,6.40
2018,12,20,10,48,9.60
2018,12,20,10,49,14.50
2018,12,20,10,50,11.30
2018,12,20,10,51,11.30
2018,12,20,10,52,12.90
2018,12,20,10,53,11.30
2018,12,20,10,54,6.40
2018,12,20,10,55,4.80
2018,12,20,10,56,8.10
2018,12,20,10,57,9.60
2018,12,20,10,58,12.90
2018,12,20,10,59,12.90
2018,12,20,11,00,14.50
2018,12,20,11,01,19.30
2018,12,20,11,02,14.50
2018,12,20,11,03,14.50
2018,12,20,11,04,11.30
2018,12,20,11,05,16.10
2018,12,20,11,06,20.90
2018,12,20,11,07,19.30
2018,12,20,11,08,30.60
2018,12,20,11,09,30.60
2018,12,20,11,10,41.80
2018,12,20,11,11,37.00
2018,12,20,11,12,35.40
2018,12,20,11,13,40.20
2018,12,20,11,14,40.20
2018,12,20,11,15,33.80
2018,12,20,11,16,37.00
2018,12,20,11,17,35.40
2018,12,20,11,18,49.90
2018,12,20,11,19,41.80
2018,12,20,11,20,29.00
2018,12,20,11,21,29.00
2018,12,20,11,22,25.70
2018,12,20,11,23,46.70
2018,12,20,11,24,29.00
2018,12,20,11,25,33.80
2018,12,20,11,26,41.80
2018,12,20,11,27,35.40
2018,12,20,11,28,30.60
2018,12,20,11,29,30.60
2018,12,20,11,30,37.00
2018,12,20,11,31,43.50
2018,12,20,11,32,30.60
2018,12,20,11,33,27.40
2018,12,20,11,34,33.80
2018,12,20,11,35,32.20
2018,12,20,11,36,32.20
2018,12,20,11,37,27.40
2018,12,20,11,38,32.20
2018,12,20,11,39,38.60
2018,12,20,11,40,43.50
2018,12,20,11,41,33.80
2018,12,20,11,42,45.10
2018,12,20,11,43,53.10
2018,12,20,11,44,40.20
2018,12,20,11,45,35.40
2018,12,20,11,46,45.10
2018,12,20,11,47,56.30
2018,12,20,11,48,29.00
2018,12,20,11,49,30.60
2018,12,20,11,50,37.00
2018,12,20,11,51,41.80
2018,12,20,11,52,49.90
2018,12,20,11,53,45.10
2018,12,20,11,54,32.20
2018,12,20,11,55,40.20
2018,12,20,11,56,38.60
2018,12,20,11,57,27.40
2018,12,20,11,58,40.20
2018,12,20,11,59,40.20
2018,12,20,12,00,38.60
2018,12,20,12,01,35.40
2018,12,20,12,02,33.80
2018,12,20,12,03,53.10
2018,12,20,12,04,48.30
2018,12,20,12,05,40.20
2018,12,20,12,06,46.70
2018,12,20,12,07,45.10
2018,12,20,12,08,48.30
2018,12,20,12,09,40.20
2018,12,20,12,10,46.70
2018,12,20,12,11,41.80
2018,12,20,12,12,41.80
2018,12,20,12,13,49.90
2018,12,20,12,14,38.60
2018,12,20,12,15,37.00
2018,12,20,12,16,45.10
2018,12,20,12,17,43.50
2018,12,20,12,18,30.60
2018,12,20,12,19,30.60
2018,12,20,12,20,37.00
2018,12,20,12,21,41.80
2018,12,20,12,22,29.00
2018,12,20,12,23,41.80
2018,12,20,12,24,25.70
2018,12,20,12,25,27.40
2018,12,20,12,26,33.80
2018,12,20,12,27,24.20
2018,12,20,12,28,27.40
2018,12,20,12,29,37.00
2018,12,20,12,30,38.60
2018,12,20,12,31,40.20
2018,12,20,12,32,46.70
2018,12,20,12,33,41.80
2018,12,20,12,34,46.70
2018,12,20,12,35,35.40
2018,12,20,12,36,43.50
2018,12,20,12,37,37.00
2018,12,20,12,38,41.80
2018,12,20,12,39,33.80
2018,12,20,12,40,43.50
2018,12,20,12,41,41.80
2018,12,20,12,42,29.00
2018,12,20,12,43,27.40
2018,12,20,12,44,49.90
2018,12,20,12,45,35.40
2018,12,20,12,46,38.60
2018,12,20,12,47,27.40
2018,12,20,12,48,33.80
2018,12,20,12,49,29.00
2018,12,20,12,50,35.40
2018,12,20,12,51,49.90
2018,12,20,12,52,25.70
2018,12,20,12,53,37.00
2018,12,20,12,54,32.20
2018,12,20,12,55,54.70
2018,12,20,12,56,33.80
2018,12,20,12,57,41.80
2018,12,20,12,58,41.80
2018,12,20,12,59,46.70
2018,12,20,13,00,41.80
2018,12,20,13,01,30.60
2018,12,20,13,02,45.10
2018,12,20,13,03,27.40
2018,12,20,13,04,35.40
2018,12,20,13,05,38.60
2018,12,20,13,06,40.20
2018,12,20,13,07,33.80
2018,12,20,13,08,33.80
2018,12,20,13,09,40.20
2018,12,20,13,10,35.40
2018,12,20,13,11,43.50
2018,12,20,13,12,43.50
2018,12,20,13,13,32.20
2018,12,20,13,14,30.60
2018,12,20,13,15,38.60
2018,12,20,13,16,29.00
2018,12,20,13,17,53.10
2018,12,20,13,18,59.50
2018,12,20,13,19,48.30
2018,12,20,13,20,40.20
2018,12,20,13,21,46.70
2018,12,20,13,22,41.80
2018,12,20,13,23,56.30
2018,12,20,13,24,38.60
2018,12,20,13,25,54.70
2018,12,20,13,26,41.80
2018,12,20,13,27,45.10
2018,12,20,13,28,48.30
2018,12,20,13,29,41.80
2018,12,20,13,30,43.50
2018,12,20,13,31,51.50
2018,12,20,13,32,45.10
2018,12,20,13,33,45.10
2018,12,20,13,34,62.70
2018,12,20,13,35,54.70
2018,12,20,13,36,57.90
2018,12,20,13,37,49.90
2018,12,20,13,38,45.10
2018,12,20,13,39,40.20
2018,12,20,13,40,40.20
2018,12,20,13,41,59.50
2018,12,20,13,42,37.00
2018,12,20,13,43,41.80
2018,12,20,13,44,33.80
2018,12,20,13,45,38.60
2018,12,20,13,46,29.00
2018,12,20,13,47,40.20
2018,12,20,13,48,35.40
2018,12,20,13,49,43.50
2018,12,20,13,50,45.10
2018,12,20,13,51,38.60
2018,12,20,13,52,46.70
2018,12,20,13,53,24.20
2018,12,20,13,54,59.50
2018,12,20,13,55,30.60
2018,12,20,13,56,37.00
2018,12,20,13,57,40.20
2018,12,20,13,58,43.50
2018,12,20,13,59,40.20
2018,12,20,14,00,32.20
2018,12,20,14,01,41.80
2018,12,20,14,02,30.60
2018,12,20,14,03,35.40
2018,12,20,14,04,53.10
2018,12,20,14,05,51.50
2018,12,20,14,06,59.50
2018,12,20,14,07,57.90
2018,12,20,14,08,43.50
2018,12,20,14,09,54.70
2018,12,20,14,10,46.70
2018,12,20,14,11,35.40
2018,12,20,14,12,62.70
2018,12,20,14,13,45.10
2018,12,20,14,14,57.90
2018,12,20,14,15,57.90
2018,12,20,14,16,53.10
2018,12,20,14,17,49.90
2018,12,20,14,18,48.30
2018,12,20,14,19,70.80
2018,12,20,14,20,59.50
2018,12,20,14,21,45.10
2018,12,20,14,22,54.70
2018,12,20,14,23,38.60
2018,12,20,14,24,53.10
2018,12,20,14,25,35.40
2018,12,20,14,26,41.80
2018,12,20,14,27,43.50
2018,12,20,14,28,51.50
2018,12,20,14,29,37.00
2018,12,20,14,30,35.40
2018,12,20,14,31,41.80
2018,12,20,14,32,49.90
2018,12,20,14,33,32.20
2018,12,20,14,34,53.10
2018,12,20,14,35,56.30
2018,12,20,14,36,51.50
2018,12,20,14,37,57.90
2018,12,20,14,38,56.30
2018,12,20,14,39,40.20
2018,12,20,14,40,29.00
2018,12,20,14,41,37.00
2018,12,20,14,42,49.90
2018,12,20,14,43,41.80
2018,12,20,14,44,43.50
2018,12,20,14,45,43.50
2018,12,20,14,46,51.50
2018,12,20,14,47,62.70
2018,12,20,14,48,48.30
2018,12,20,14,49,38.60
2018,12,20,14,50,29.00
2018,12,20,14,51,48.30
2018,12,20,14,52,46.70
2018,12,20,14,53,41.80
2018,12,20,14,54,41.80
2018,12,20,14,55,41.80
2018,12,20,14,56,41.80
2018,12,20,14,57,54.70
2018,12,20,14,58,40.20
2018,12,20,14,59,30.60
2018,12,20,15,00,53.10
2018,12,20,15,01,46.70
2018,12,20,15,02,38.60
2018,12,20,15,03,41.80
2018,12,20,15,04,41.80
2018,12,20,15,05,49.90
2018,12,20,15,06,53.10
2018,12,20,15,07,40.20
2018,12,20,15,08,49.90
2018,12,20,15,09,53.10
2018,12,20,15,10,41.80
2018,12,20,15,11,49.90
2018,12,20,15,12,40.20
2018,12,20,15,13,49.90
2018,12,20,15,14,43.50
2018,12,20,15,15,38.60
2018,12,20,15,16,37.00
2018,12,20,15,17,43.50
2018,12,20,15,18,48.30
2018,12,20,15,19,38.60
2018,12,20,15,20,46.70
2018,12,20,15,21,48.30
2018,12,20,15,22,46.70
2018,12,20,15,23,46.70
2018,12,20,15,24,56.30
2018,12,20,15,25,59.50
2018,12,20,15,26,43.50
2018,12,20,15,27,59.50
2018,12,20,15,28,46.70
2018,12,20,15,29,38.60
2018,12,20,15,30,43.50
2018,12,20,15,31,41.80
2018,12,20,15,32,40.20
2018,12,20,15,33,33.80
2018,12,20,15,34,41.80
2018,12,20,15,35,48.30
2018,12,20,15,36,40.20
2018,12,20,15,37,40.20
2018,12,20,15,38,32.20
2018,12,20,15,39,46.70
2018,12,20,15,40,45.10
2018,12,20,15,41,48.30
2018,12,20,15,42,41.80
2018,12,20,15,43,22.50
2018,12,20,15,44,32.20
2018,12,20,15,45,27.40
2018,12,20,15,46,49.90
2018,12,20,15,47,45.10
2018,12,20,15,48,48.30
2018,12,20,15,49,62.70
2018,12,20,15,50,41.80
2018,12,20,15,51,40.20
2018,12,20,15,52,46.70
2018,12,20,15,53,43.50
2018,12,20,15,54,46.70
2018,12,20,15,55,41.80
2018,12,20,15,56,38.60
2018,12,20,15,57,43.50
2018,12,20,15,58,53.10
2018,12,20,15,59,37.00
2018,12,20,16,00,48.30
2018,12,20,16,01,45.10
2018,12,20,16,02,54.70
2018,12,20,16,03,35.40
2018,12,20,16,04,40.20
2018,12,20,16,05,41.80
2018,12,20,16,06,37.00
2018,12,20,16,07,38.60
2018,12,20,16,08,43.50
2018,12,20,16,09,48.30
2018,12,20,16,10,49.90
2018,12,20,16,11,53.10
2018,12,20,16,12,40.20
2018,12,20,16,13,43.50
2018,12,20,16,14,49.90
2018,12,20,16,15,43.50
2018,12,20,16,16,59.50
2018,12,20,16,17,56.30
2018,12,20,16,18,54.70
2018,12,20,16,19,43.50
2018,12,20,16,20,66.00
2018,12,20,16,21,40.20
2018,12,20,16,22,37.00
2018,12,20,16,23,37.00
2018,12,20,16,24,45.10
2018,12,20,16,25,37.00
2018,12,20,16,26,61.20
2018,12,20,16,27,51.50
2018,12,20,16,28,54.70
2018,12,20,16,29,54.70
2018,12,20,16,30,38.60
2018,12,20,16,31,33.80
2018,12,20,16,32,48.30
2018,12,20,16,33,45.10
2018,12,20,16,34,33.80
2018,12,20,16,35,37.00
2018,12,20,16,36,38.60
2018,12,20,16,37,48.30
2018,12,20,16,38,25.70
2018,12,20,16,39,32.20
2018,12,20,16,40,12.90
2018,12,20,16,41,30.60
2018,12,20,16,42,30.60
2018,12,20,16,43,32.20
2018,12,20,16,44,22.50
2018,12,20,16,45,33.80
2018,12,20,16,46,22.50
2018,12,20,16,47,43.50
2018,12,20,16,48,32.20
2018,12,20,16,49,29.00
2018,12,20,16,50,22.50
2018,12,20,16,51,32.20
2018,12,20,16,52,33.80
2018,12,20,16,53,38.60
2018,12,20,16,54,22.50
2018,12,20,16,55,22.50
2018,12,20,16,56,27.40
2018,12,20,16,57,22.50
2018,12,20,16,58,32.20
2018,12,20,16,59,24.20
2018,12,20,17,00,25.70
2018,12,20,17,01,24.20
2018,12,20,17,02,30.60
2018,12,20,17,03,48.30
2018,12,20,17,04,38.60
2018,12,20,17,05,38.60
2018,12,20,17,06,30.60
2018,12,20,17,07,33.80
2018,12,20,17,08,29.00
2018,12,20,17,09,19.30
2018,12,20,17,10,49.90
2018,12,20,17,11,25.70
2018,12,20,17,12,25.70
2018,12,20,17,13,40.20
2018,12,20,17,14,27.40
2018,12,20,17,15,19.30
2018,12,20,17,16,29.00
2018,12,20,17,17,40.20
2018,12,20,17,18,35.40
2018,12,20,17,19,48.30
2018,12,20,17,20,33.80
2018,12,20,17,21,22.50
2018,12,20,17,22,25.70
2018,12,20,17,23,29.00
2018,12,20,17,24,27.40
2018,12,20,17,25,29.00
2018,12,20,17,26,32.20
2018,12,20,17,27,43.50
2018,12,20,17,28,35.40
2018,12,20,17,29,38.60
2018,12,20,17,30,32.20
2018,12,20,17,31,33.80
2018,12,20,17,32,43.50
2018,12,20,17,33,27.40
2018,12,20,17,34,38.60
2018,12,20,17,35,41.80
2018,12,20,17,36,41.80
2018,12,20,17,37,33.80
2018,12,20,17,38,38.60
2018,12,20,17,39,27.40
2018,12,20,17,40,24.20
2018,12,20,17,41,25.70
2018,12,20,17,42,30.60
2018,12,20,17,43,32.20
2018,12,20,17,44,38.60
2018,12,20,17,45,32.20
2018,12,20,17,46,27.40
2018,12,20,17,47,30.60
2018,12,20,17,48,41.80
2018,12,20,17,49,25.70
2018,12,20,17,50,33.80
2018,12,20,17,51,27.40
2018,12,20,17,52,27.40
2018,12,20,17,53,37.00
2018,12,20,17,54,27.40
2018,12,20,17,55,25.70
2018,12,20,17,56,38.60
2018,12,20,17,57,19.30
2018,12,20,17,58,32.20
2018,12,20,17,59,25.70
2018,12,20,18,00,33.80
2018,12,20,18,01,25.70
2018,12,20,18,02,41.80
2018,12,20,18,03,38.60
2018,12,20,18,04,43.50
2018,12,20,18,05,33.80
2018,12,20,18,06,17.70
2018,12,20,18,07,25.70
2018,12,20,18,08,27.40
2018,12,20,18,09,24.20
2018,12,20,18,10,20.90
2018,12,20,18,11,32.20
2018,12,20,18,12,29.00
2018,12,20,18,13,30.60
2018,12,20,18,14,22.50
2018,12,20,18,15,37.00
2018,12,20,18,16,24.20
2018,12,20,18,17,24.20
2018,12,20,18,18,29.00
2018,12,20,18,19,24.20
2018,12,20,18,20,25.70
2018,12,20,18,21,27.40
2018,12,20,18,22,33.80
2018,12,20,18,23,32.20
2018,12,20,18,24,30.60
2018,12,20,18,25,33.80
2018,12,20,18,26,38.60
2018,12,20,18,27,41.80
2018,12,20,18,28,24.20
2018,12,20,18,29,30.60
2018,12,20,18,30,40.20
2018,12,20,18,31,57.90
2018,12,20,18,32,46.70
2018,12,20,18,33,41.80
2018,12,20,18,34,41.80
2018,12,20,18,35,43.50
2018,12,20,18,36,40.20
2018,12,20,18,37,45.10
2018,12,20,18,38,32.20
2018,12,20,18,39,29.00
2018,12,20,18,40,43.50
2018,12,20,18,41,48.30
2018,12,20,18,42,41.80
2018,12,20,18,43,33.80
2018,12,20,18,44,41.80
2018,12,20,18,45,38.60
2018,12,20,18,46,38.60
2018,12,20,18,47,27.40
2018,12,20,18,48,32.20
2018,12,20,18,49,29.00
2018,12,20,18,50,22.50
2018,12,20,18,51,30.60
2018,12,20,18,52,32.20
2018,12,20,18,53,25.70
2018,12,20,18,54,25.70
2018,12,20,18,55,20.90
2018,12,20,18,56,17.70
2018,12,20,18,57,41.80
2018,12,20,18,58,27.40
2018,12,20,18,59,25.70
2018,12,20,19,00,40.20
2018,12,20,19,01,35.40
2018,12,20,19,02,40.20
2018,12,20,19,03,41.80
2018,12,20,19,04,38.60
2018,12,20,19,05,32.20
2018,12,20,19,06,41.80
2018,12,20,19,07,40.20
2018,12,20,19,08,35.40
2018,12,20,19,09,27.40
2018,12,20,19,10,37.00
2018,12,20,19,11,30.60
2018,12,20,19,12,32.20
2018,12,20,19,13,24.20
2018,12,20,19,14,29.00
2018,12,20,19,15,46.70
2018,12,20,19,16,37.00
2018,12,20,19,17,29.00
2018,12,20,19,18,40.20
2018,12,20,19,19,25.70
2018,12,20,19,20,24.20
2018,12,20,19,21,48.30
2018,12,20,19,22,30.60
2018,12,20,19,23,33.80
2018,12,20,19,24,32.20
2018,12,20,19,25,35.40
2018,12,20,19,26,40.20
2018,12,20,19,27,33.80
2018,12,20,19,28,33.80
2018,12,20,19,29,45.10
2018,12,20,19,30,41.80
2018,12,20,19,31,32.20
2018,12,20,19,32,30.60
2018,12,20,19,33,35.40
2018,12,20,19,34,20.90
2018,12,20,19,35,24.20
2018,12,20,19,36,25.70
2018,12,20,19,37,43.50
2018,12,20,19,38,37.00
2018,12,20,19,39,35.40
2018,12,20,19,40,35.40
2018,12,20,19,41,30.60
2018,12,20,19,42,37.00
2018,12,20,19,43,37.00
2018,12,20,19,44,29.00
2018,12,20,19,45,20.90
2018,12,20,19,46,32.20
2018,12,20,19,47,27.40
2018,12,20,19,48,33.80
2018,12,20,19,49,43.50
2018,12,20,19,50,33.80
2018,12,20,19,51,46.70
2018,12,20,19,52,30.60
2018,12,20,19,53,19.30
2018,12,20,19,54,19.30
2018,12,20,19,55,19.30
2018,12,20,19,56,24.20
2018,12,20,19,57,38.60
2018,12,20,19,58,32.20
2018,12,20,19,59,19.30
2018,12,20,20,00,14.50
2018,12,20,20,01,24.20
2018,12,20,20,02,17.70
2018,12,20,20,03,25.70
2018,12,20,20,04,24.20
2018,12,20,20,05,30.60
2018,12,20,20,06,33.80
2018,12,20,20,07,25.70
2018,12,20,20,08,14.50
2018,12,20,20,09,9.60
2018,12,20,20,10,20.90
2018,12,20,20,11,22.50
2018,12,20,20,12,27.40
2018,12,20,20,13,45.10
2018,12,20,20,14,33.80
2018,12,20,20,15,40.20
2018,12,20,20,16,32.20
2018,12,20,20,17,35.40
2018,12,20,20,18,30.60
2018,12,20,20,19,20.90
2018,12,20,20,20,25.70
2018,12,20,20,21,37.00
2018,12,20,20,22,29.00
2018,12,20,20,23,33.80
2018,12,20,20,24,33.80
2018,12,20,20,25,27.40
2018,12,20,20,26,32.20
2018,12,20,20,27,30.60
2018,12,20,20,28,27.40
2018,12,20,20,29,29.00
2018,12,20,20,30,24.20
2018,12,20,20,31,25.70
2018,12,20,20,32,29.00
2018,12,20,20,33,20.90
2018,12,20,20,34,27.40
2018,12,20,20,35,25.70
2018,12,20,20,36,17.70
2018,12,20,20,37,27.40
2018,12,20,20,38,17.70
2018,12,20,20,39,33.80
2018,12,20,20,40,33.80
2018,12,20,20,41,37.00
2018,12,20,20,42,20.90
2018,12,20,20,43,20.90
2018,12,20,20,44,12.90
2018,12,20,20,45,17.70
2018,12,20,20,46,33.80
2018,12,20,20,47,24.20
2018,12,20,20,48,16.10
2018,12,20,20,49,20.90
2018,12,20,20,50,9.60
2018,12,20,20,51,16.10
2018,12,20,20,52,22.50
2018,12,20,20,53,32.20
2018,12,20,20,54,25.70
2018,12,20,20,55,14.50
2018,12,20,20,56,33.80
2018,12,20,20,57,20.90
2018,12,20,20,58,24.20
2018,12,20,20,59,22.50
2018,12,20,21,00,24.20
2018,12,20,21,01,27.40
2018,12,20,21,02,30.60
2018,12,20,21,03,25.70
2018,12,20,21,04,27.40
2018,12,20,21,05,22.50
2018,12,20,21,06,19.30
2018,12,20,21,07,20.90
2018,12,20,21,08,20.90
2018,12,20,21,09,25.70
2018,12,20,21,10,29.00
2018,12,20,21,11,33.80
2018,12,20,21,12,24.20
2018,12,20,21,13,30.60
2018,12,20,21,14,32.20
2018,12,20,21,15,24.20
2018,12,20,21,16,17.70
2018,12,20,21,17,32.20
2018,12,20,21,18,30.60
2018,12,20,21,19,24.20
2018,12,20,21,20,25.70
2018,12,20,21,21,25.70
2018,12,20,21,22,17.70
2018,12,20,21,23,19.30
2018,12,20,21,24,24.20
2018,12,20,21,25,25.70
2018,12,20,21,26,22.50
2018,12,20,21,27,22.50
2018,12,20,21,28,19.30
2018,12,20,21,29,20.90
2018,12,20,21,30,16.10
2018,12,20,21,31,27.40
2018,12,20,21,32,29.00
2018,12,20,21,33,27.40
2018,12,20,21,34,16.10
2018,12,20,21,35,20.90
2018,12,20,21,36,25.70
2018,12,20,21,37,22.50
2018,12,20,21,38,17.70
2018,12,20,21,39,17.70
2018,12,20,21,40,17.70
2018,12,20,21,41,14.50
2018,12,20,21,42,22.50
2018,12,20,21,43,35.40
2018,12,20,21,44,27.40
2018,12,20,21,45,29.00
2018,12,20,21,46,19.30
2018,12,20,21,47,19.30
2018,12,20,21,48,12.90
2018,12,20,21,49,19.30
2018,12,20,21,50,24.20
2018,12,20,21,51,35.40
2018,12,20,21,52,24.20
2018,12,20,21,53,30.60
2018,12,20,21,54,29.00
2018,12,20,21,55,29.00
2018,12,20,21,56,37.00
2018,12,20,21,57,29.00
2018,12,20,21,58,19.30
2018,12,20,21,59,29.00
2018,12,20,22,00,25.70
2018,12,20,22,01,25.70
2018,12,20,22,02,32.20
2018,12,20,22,03,37.00
2018,12,20,22,04,32.20
2018,12,20,22,05,25.70
2018,12,20,22,06,22.50
2018,12,20,22,07,25.70
2018,12,20,22,08,19.30
2018,12,20,22,09,16.10
2018,12,20,22,10,25.70
2018,12,20,22,11,25.70
2018,12,20,22,12,29.00
2018,12,20,22,13,29.00
2018,12,20,22,14,25.70
2018,12,20,22,15,37.00
2018,12,20,22,16,30.60
2018,12,20,22,17,24.20
2018,12,20,22,18,20.90
2018,12,20,22,19,25.70
2018,12,20,22,20,22.50
2018,12,20,22,21,29.00
2018,12,20,22,22,37.00
2018,12,20,22,23,27.40
2018,12,20,22,24,25.70
2018,12,20,22,25,48.30
2018,12,20,22,26,41.80
2018,12,20,22,27,37.00
2018,12,20,22,28,25.70
2018,12,20,22,29,33.80
2018,12,20,22,30,25.70
2018,12,20,22,31,30.60
2018,12,20,22,32,29.00
2018,12,20,22,33,37.00
2018,12,20,22,34,22.50
2018,12,20,22,35,43.50
2018,12,20,22,36,40.20
2018,12,20,22,37,32.20
2018,12,20,22,38,37.00
2018,12,20,22,39,29.00
2018,12,20,22,40,30.60
2018,12,20,22,41,27.40
2018,12,20,22,42,27.40
2018,12,20,22,43,22.50
2018,12,20,22,44,30.60
2018,12,20,22,45,20.90
2018,12,20,22,46,20.90
2018,12,20,22,47,17.70
2018,12,20,22,48,24.20
2018,12,20,22,49,24.20
2018,12,20,22,50,24.20
2018,12,20,22,51,33.80
2018,12,20,22,52,22.50
2018,12,20,22,53,16.10
2018,12,20,22,54,22.50
2018,12,20,22,55,14.50
2018,12,20,22,56,12.90
2018,12,20,22,57,19.30
2018,12,20,22,58,17.70
2018,12,20,22,59,12.90
2018,12,20,23,00,20.90
2018,12,20,23,01,25.70
2018,12,20,23,02,17.70
2018,12,20,23,03,20.90
2018,12,20,23,04,20.90
2018,12,20,23,05,29.00
2018,12,20,23,06,17.70
2018,12,20,23,07,22.50
2018,12,20,23,08,16.10
2018,12,20,23,09,24.20
2018,12,20,23,10,22.50
2018,12,20,23,11,25.70
2018,12,20,23,12,22.50
2018,12,20,23,13,22.50
2018,12,20,23,14,20.90
2018,12,20,23,15,20.90
2018,12,20,23,16,24.20
2018,12,20,23,17,24.20
2018,12,20,23,18,27.40
2018,12,20,23,19,20.90
2018,12,20,23,20,16.10
2018,12,20,23,21,16.10
2018,12,20,23,22,16.10
2018,12,20,23,23,19.30
2018,12,20,23,24,14.50
2018,12,20,23,25,25.70
2018,12,20,23,26,27.40
2018,12,20,23,27,30.60
2018,12,20,23,28,16.10
2018,12,20,23,29,32.20
2018,12,20,23,30,27.40
2018,12,20,23,31,25.70
2018,12,20,23,32,25.70
2018,12,20,23,33,20.90
2018,12,20,23,34,25.70
2018,12,20,23,35,22.50
2018,12,20,23,36,17.70
2018,12,20,23,37,24.20
2018,12,20,23,38,16.10
2018,12,20,23,39,16.10
2018,12,20,23,40,33.80
2018,12,20,23,41,22.50
2018,12,20,23,42,27.40
2018,12,20,23,43,27.40
2018,12,20,23,44,27.40
2018,12,20,23,45,24.20
2018,12,20,23,46,22.50
2018,12,20,23,47,32.20
2018,12,20,23,48,33.80
2018,12,20,23,49,24.20
2018,12,20,23,50,24.20
2018,12,20,23,51,37.00
2018,12,20,23,52,33.80
2018,12,20,23,53,30.60
2018,12,20,23,54,27.40
2018,12,20,23,55,17.70
2018,12,20,23,56,17.70
2018,12,20,23,57,17.70
2018,12,20,23,58,22.50
2018,12,20,23,59,19.30
